When you browse on this site, cookies collect data to enhance your experience and personalize the content and advertising you see.
Visit our Privacy Policy to learn more. By continuing to use the site, you agree to this use of cookies and data.
  • In Germany
  • List of Countries
  • For 7 days
  • Water Temperature
  • Satellite Maps
  • Weather Map
  • Weather Widgets
  • user-avatar
    Login

    Hourly Weather Kerns

    Today, 13 December, Thursday

    Time Temperature Precipitation Wind Pressure Humidity
    00:00 +26°C° 0 mm 0 mps 755 mmHg 97%
    01:00 +28°C° 0 mm 1 mps 755 mmHg 98%
    02:00 +27°C° 0 mm 1 mps 755 mmHg 98%
    03:00 +27°C° 0 mm 1 mps 755 mmHg 98%
    04:00 +27°C° 0 mm 1 mps 754 mmHg 98%
    05:00 +28°C° 0 mm 1 mps 755 mmHg 96%
    06:00 +28°C° 0 mm 1 mps 755 mmHg 93%
    07:00 +29°C° 0 mm 1 mps 756 mmHg 91%
    08:00 +31°C° 0.1 mm 1 mps 756 mmHg 82%
    09:00 +33°C° 0.1 mm 1 mps 756 mmHg 73%
    10:00 +35°C° 0 mm 1 mps 756 mmHg 63%
    11:00 +36°C° 0.3 mm 2 mps 755 mmHg 63%
    12:00 +36°C° 0.3 mm 3 mps 755 mmHg 63%
    13:00 +37°C° 0.3 mm 3 mps 754 mmHg 63%
    14:00 +36°C° 0.6 mm 3 mps 754 mmHg 67%
    15:00 +36°C° 0.6 mm 3 mps 753 mmHg 70%
    16:00 +35°C° 0.6 mm 3 mps 753 mmHg 73%
    17:00 +34°C° 0.6 mm 3 mps 753 mmHg 79%
    18:00 +31°C° 0.6 mm 3 mps 753 mmHg 86%
    19:00 +29°C° 0.6 mm 2 mps 753 mmHg 93%
    20:00 +29°C° 1.3 mm 2 mps 754 mmHg 93%
    21:00 +29°C° 1.3 mm 2 mps 754 mmHg 94%
    22:00 +29°C° 1.3 mm 2 mps 755 mmHg 94%
    23:00 +28°C° 0.5 mm 2 mps 754 mmHg 94%

    Tomorrow, 14 December, Friday

    Time Temperature Precipitation Wind Pressure Humidity
    00:00 +28°C° 0.5 mm 3 mps 754 mmHg 95%
    01:00 +28°C° 0.5 mm 3 mps 753 mmHg 95%
    02:00 +28°C° 0.2 mm 3 mps 753 mmHg 95%
    03:00 +28°C° 0.2 mm 3 mps 753 mmHg 95%
    04:00 +28°C° 0.2 mm 3 mps 752 mmHg 96%
    05:00 +28°C° 0.2 mm 3 mps 753 mmHg 94%
    06:00 +29°C° 0.2 mm 3 mps 753 mmHg 93%
    07:00 +29°C° 0.2 mm 3 mps 753 mmHg 92%
    08:00 +31°C° 0.7 mm 3 mps 753 mmHg 85%
    09:00 +33°C° 0.7 mm 3 mps 753 mmHg 79%
    10:00 +35°C° 0.7 mm 3 mps 754 mmHg 72%
    11:00 +35°C° 0.5 mm 4 mps 753 mmHg 72%
    12:00 +35°C° 0.5 mm 4 mps 752 mmHg 72%
    13:00 +36°C° 0.5 mm 4 mps 752 mmHg 72%
    14:00 +35°C° 1.1 mm 4 mps 751 mmHg 76%
    15:00 +34°C° 1.1 mm 4 mps 751 mmHg 79%
    16:00 +33°C° 1.1 mm 4 mps 751 mmHg 83%
    17:00 +32°C° 1.9 mm 4 mps 751 mmHg 86%
    18:00 +30°C° 1.9 mm 4 mps 751 mmHg 89%
    19:00 +29°C° 1.9 mm 3 mps 752 mmHg 92%
    20:00 +29°C° 1.4 mm 3 mps 752 mmHg 93%
    21:00 +29°C° 1.4 mm 3 mps 753 mmHg 94%
    22:00 +28°C° 1.4 mm 4 mps 753 mmHg 95%
    23:00 +28°C° 1.6 mm 3 mps 753 mmHg 95%

    Day after tomorrow, 15 December, Saturday

    Time Temperature Precipitation Wind Pressure Humidity
    00:00 +28°C° 1.6 mm 3 mps 753 mmHg 94%
    01:00 +28°C° 1.6 mm 3 mps 753 mmHg 94%
    02:00 +28°C° 0.8 mm 3 mps 752 mmHg 95%
    03:00 +28°C° 0.8 mm 3 mps 752 mmHg 97%
    04:00 +28°C° 0.8 mm 3 mps 752 mmHg 98%
    05:00 +28°C° 1.3 mm 3 mps 752 mmHg 97%
    06:00 +28°C° 1.3 mm 3 mps 753 mmHg 96%
    07:00 +28°C° 1.3 mm 3 mps 753 mmHg 96%
    08:00 +29°C° 1.3 mm 4 mps 753 mmHg 94%
    09:00 +29°C° 1.3 mm 4 mps 753 mmHg 93%
    10:00 +30°C° 1.3 mm 5 mps 753 mmHg 91%
    11:00 +29°C° 1.2 mm 5 mps 753 mmHg 92%
    12:00 +29°C° 1.2 mm 6 mps 752 mmHg 93%
    13:00 +29°C° 1.2 mm 6 mps 752 mmHg 94%
    14:00 +29°C° 1 mm 6 mps 751 mmHg 94%
    15:00 +29°C° 1 mm 7 mps 750 mmHg 94%
    16:00 +29°C° 1 mm 7 mps 750 mmHg 95%
    17:00 +29°C° 1.2 mm 8 mps 750 mmHg 95%
    18:00 +29°C° 1.2 mm 8 mps 750 mmHg 95%
    19:00 +29°C° 1.2 mm 8 mps 750 mmHg 94%
    20:00 +29°C° 1 mm 8 mps 751 mmHg 95%
    21:00 +28°C° 1 mm 7 mps 751 mmHg 95%
    22:00 +28°C° 1 mm 7 mps 751 mmHg 95%
    23:00 +28°C° 0.1 mm 7 mps 751 mmHg 94%

    16 December, Sunday

    Time Temperature Precipitation Wind Pressure Humidity
    00:00 +28°C° 0.1 mm 6 mps 751 mmHg 94%
    01:00 +28°C° 0.1 mm 6 mps 751 mmHg 93%
    02:00 +28°C° 0 mm 6 mps 750 mmHg 93%
    03:00 +28°C° 0 mm 6 mps 750 mmHg 92%
    04:00 +28°C° 0 mm 6 mps 750 mmHg 91%
    05:00 +28°C° 0 mm 6 mps 751 mmHg 88%
    06:00 +28°C° 0 mm 6 mps 752 mmHg 85%
    07:00 +28°C° 0 mm 6 mps 752 mmHg 83%
    08:00 +30°C° 0 mm 6 mps 752 mmHg 73%
    09:00 +32°C° 0 mm 6 mps 753 mmHg 64%
    10:00 +34°C° 0 mm 6 mps 753 mmHg 54%
    11:00 +35°C° 0 mm 6 mps 753 mmHg 47%
    12:00 +38°C° 0 mm 6 mps 752 mmHg 41%
    13:00 +39°C° 0 mm 6 mps 751 mmHg 34%
    14:00 +39°C° 0 mm 5 mps 751 mmHg 35%
    15:00 +37°C° 0 mm 5 mps 751 mmHg 36%
    16:00 +37°C° 0 mm 5 mps 750 mmHg 36%
    17:00 +35°C° 0 mm 4 mps 751 mmHg 42%
    18:00 +33°C° 0 mm 4 mps 751 mmHg 47%
    19:00 +29°C° 0 mm 4 mps 752 mmHg 52%
    20:00 +28°C° 0 mm 4 mps 752 mmHg 52%
    21:00 +27°C° 0 mm 3 mps 753 mmHg 51%
    22:00 +27°C° 0 mm 3 mps 753 mmHg 51%
    23:00 +26°C° 0 mm 3 mps 753 mmHg 51%

    17 December, Monday

    Time Temperature Precipitation Wind Pressure Humidity
    00:00 +26°C° 0 mm 3 mps 753 mmHg 52%
    01:00 +25°C° 0 mm 3 mps 753 mmHg 52%
    02:00 +25°C° 0 mm 3 mps 752 mmHg 51%
    03:00 +25°C° 0 mm 3 mps 752 mmHg 51%
    04:00 +25°C° 0 mm 4 mps 752 mmHg 50%
    05:00 +25°C° 0 mm 4 mps 753 mmHg 53%
    06:00 +25°C° 0 mm 4 mps 753 mmHg 56%
    07:00 +26°C° 0 mm 4 mps 754 mmHg 59%
    08:00 +29°C° 0 mm 3 mps 754 mmHg 54%
    09:00 +33°C° 0 mm 3 mps 754 mmHg 49%
    10:00 +36°C° 0 mm 2 mps 754 mmHg 44%
    11:00 +37°C° 0 mm 3 mps 754 mmHg 40%
    12:00 +38°C° 0 mm 3 mps 753 mmHg 36%
    13:00 +39°C° 0 mm 3 mps 752 mmHg 32%
    14:00 +39°C° 0 mm 3 mps 752 mmHg 33%
    15:00 +40°C° 0 mm 4 mps 752 mmHg 34%
    16:00 +40°C° 0 mm 4 mps 751 mmHg 35%
    17:00 +36°C° 0 mm 4 mps 752 mmHg 44%
    18:00 +34°C° 0 mm 4 mps 752 mmHg 54%
    19:00 +30°C° 0 mm 3 mps 753 mmHg 63%
    20:00 +30°C° 0 mm 3 mps 753 mmHg 64%
    21:00 +29°C° 0 mm 3 mps 754 mmHg 65%
    22:00 +29°C° 0 mm 2 mps 754 mmHg 66%
    23:00 +28°C° 0 mm 2 mps 754 mmHg 66%

    18 December, Tuesday

    Time Temperature Precipitation Wind Pressure Humidity
    00:00 +28°C° 0 mm 2 mps 754 mmHg 65%
    01:00 +28°C° 0 mm 2 mps 753 mmHg 64%
    02:00 +27°C° 0 mm 2 mps 753 mmHg 64%
    03:00 +27°C° 0 mm 2 mps 753 mmHg 63%
    04:00 +27°C° 0 mm 2 mps 753 mmHg 63%
    05:00 +27°C° 0 mm 2 mps 754 mmHg 64%
    06:00 +28°C° 0 mm 2 mps 755 mmHg 66%
    07:00 +28°C° 0 mm 2 mps 755 mmHg 67%
    08:00 +31°C° 0 mm 2 mps 755 mmHg 60%
    09:00 +35°C° 0 mm 2 mps 755 mmHg 53%
    10:00 +37°C° 0 mm 1 mps 756 mmHg 47%
    11:00 +38°C° 0 mm 2 mps 755 mmHg 43%
    12:00 +39°C° 0 mm 3 mps 755 mmHg 40%
    13:00 +40°C° 0 mm 3 mps 754 mmHg 37%
    14:00 +40°C° 0 mm 4 mps 754 mmHg 40%
    15:00 +38°C° 0 mm 4 mps 754 mmHg 44%
    16:00 +37°C° 0 mm 4 mps 753 mmHg 47%
    17:00 +35°C° 0 mm 4 mps 754 mmHg 57%
    18:00 +33°C° 0 mm 3 mps 755 mmHg 66%
    19:00 +30°C° 0 mm 3 mps 755 mmHg 76%
    20:00 +30°C° 0 mm 3 mps 756 mmHg 80%
    21:00 +29°C° 0 mm 3 mps 756 mmHg 83%
    22:00 +29°C° 0 mm 2 mps 757 mmHg 86%
    23:00 +28°C° 0 mm 2 mps 757 mmHg 87%
    Show more